COSMOS 2492 (754)

Last updated on Jan. 17, 2020, 4:32 a.m. UTC

1 39620U 14012A   20015.69435266 -.00000031  00000-0  10000-3 0  9996
2 39620  65.7081  32.7729 0015006 316.6117 234.9216  2.13103389 45271
UTC
Height (km)
Latitude
Longitude
Inclination
Orbital Period
UTC large
Height (km)
Speed (km/s)
/
Latitude / Longitude
Inclination (degrees)
Orbital Period (minutes)
Azimuth
Elevation
Range (km)
Doppler Factor
iOS Compass Heading
iOS Angle

Next 30 passes for location: Hong Kong

Rise time Rise Azimuth (degrees) Set time Set Azimuth (degrees) Duration Max altitude (degrees)

No matching passes for this satellites